TimeMST,TemperatureF,Dew PointF,Humidity,Sea Level PressureIn,VisibilityMPH,Wind Direction,Wind SpeedMPH,Gust SpeedMPH,PrecipitationIn,Events,Conditions,WindDirDegrees,DateUTC
12:51 AM,37.9,15.1,39,29.91,10.0,Calm,Calm,-,N/A,,Clear,0,2013-02-17 07:51:00
1:51 AM,33.1,16.0,50,29.91,10.0,Calm,Calm,-,N/A,,Clear,0,2013-02-17 08:51:00
2:51 AM,35.1,15.1,44,29.87,10.0,SE,6.9,-,N/A,,Clear,130,2013-02-17 09:51:00
3:51 AM,34.0,16.0,48,29.85,10.0,Calm,Calm,-,N/A,,Clear,0,2013-02-17 10:51:00
4:51 AM,35.1,14.0,42,29.83,10.0,SSE,5.8,-,N/A,,Clear,160,2013-02-17 11:51:00
5:51 AM,33.1,15.1,48,29.84,10.0,SE,3.5,-,N/A,,Clear,130,2013-02-17 12:51:00
6:51 AM,36.0,14.0,41,29.84,10.0,Calm,Calm,-,N/A,,Clear,0,2013-02-17 13:51:00
7:51 AM,33.1,17.1,52,29.87,10.0,Calm,Calm,-,N/A,,Clear,0,2013-02-17 14:51:00
8:51 AM,48.9,15.1,26,29.84,10.0,Calm,Calm,-,N/A,,Clear,0,2013-02-17 15:51:00
9:51 AM,59.0,12.0,16,29.82,10.0,WSW,10.4,-,N/A,,Clear,240,2013-02-17 16:51:00
10:51 AM,62.1,10.0,13,29.80,10.0,SW,15.0,-,N/A,,Clear,230,2013-02-17 17:51:00
11:51 AM,63.0,5.0,10,29.81,10.0,WSW,18.4,-,N/A,,Clear,240,2013-02-17 18:51:00
12:51 PM,64.0,8.1,11,29.79,10.0,SW,18.4,24.2,N/A,,Clear,230,2013-02-17 19:51:00
1:51 PM,64.0,8.1,11,29.78,10.0,SSW,16.1,25.3,N/A,,Clear,210,2013-02-17 20:51:00
2:51 PM,64.9,5.0,9,29.74,10.0,WSW,15.0,26.5,N/A,,Clear,240,2013-02-17 21:51:00
3:51 PM,64.0,7.0,11,29.76,10.0,West,11.5,20.7,N/A,,Clear,260,2013-02-17 22:51:00
4:51 PM,63.0,8.1,11,29.75,10.0,SW,18.4,-,N/A,,Clear,220,2013-02-17 23:51:00
5:51 PM,60.1,7.0,12,29.76,10.0,SW,11.5,-,N/A,,Clear,230,2013-02-18 00:51:00
6:51 PM,52.0,10.9,19,29.78,10.0,SSW,10.4,-,N/A,,Clear,200,2013-02-18 01:51:00
7:51 PM,46.0,12.9,26,29.83,10.0,SSW,8.1,-,N/A,,Clear,210,2013-02-18 02:51:00
8:51 PM,46.9,12.9,25,29.80,10.0,SSW,5.8,-,N/A,,Clear,200,2013-02-18 03:51:00
10:51 PM,48.0,12.0,24,29.80,10.0,Variable,4.6,-,N/A,,Clear,0,2013-02-18 05:51:00
11:51 PM,42.1,12.9,31,29.82,10.0,SW,9.2,-,N/A,,Clear,220,2013-02-18 06:51:00